Location: Bieg
(49.3499°N, 10.3835°E)
Time: 01:49:42
(UTC+00:00)

Cosmos 1346 Rocket - Pass Details

Date: 16 August 2024
Orbit: 503 x 516 km, 81.2° (Epoch: 08 September)

Event Time Altitude Azimuth Distance (km) Brightness Sun altitude
Exits shadow 01:58:48 38° 266° (W) 782 3.2 -18.3°
Maximum altitude 01:59:18 40° 287° (WNW) 752 3.3 -18.2°
Drops below altitude 10° 02:02:54 10° 359° (N) 1,728 6.0 -17.8°
Sets 02:05:08 0° 7° (N) 2,619 7.2 -17.6°
